Location: Newark
(52.3500°N, 175.9667°E)
Time: 20:32:34
(UTC+00:00)

Transit 4A - Pass Details

Date: 21 April 2021
Orbit: 871 x 974 km, 66.8° (Epoch: 16 May)

Event Time Altitude Azimuth Distance (km) Brightness Sun altitude
Rises 14:55:46 0° 281° (W) 3,592 - -16.9°
Exits shadow 14:55:53 - 281° (WNW) 3,552 10.7 -16.9°
Reaches altitude 10° 14:58:56 10° 296° (WNW) 2,630 10.1 -16.6°
Maximum altitude 15:03:37 22° 347° (NNW) 1,872 9.9 -16.1°
Drops below altitude 10° 15:08:13 10° 37° (NE) 2,579 11.6 -15.6°
Sets 15:11:18 0° 53° (NE) 3,504 12.7 -15.3°
